Location: �clusier
(49.9361°N, 2.7869°E)
Time: 08:36:50
(UTC+00:00)

Cosmos 1455 - Pass Details

Date: 16 June 2021
Orbit: 496 x 522 km, 82.5° (Epoch: 31 July)

Event Time Altitude Azimuth Distance (km) Brightness Sun altitude
Rises 21:54:56 0° 1° (N) 2,656 7.0 -12.4°
Reaches altitude 10° 21:57:32 10° 19° (NNE) 1,758 5.6 -12.6°
Maximum altitude 22:00:27 20° 68° (ENE) 1,227 4.1 -12.8°
Enters shadow 22:02:46 13° 111° (ESE) 1,572 4.2 -12.9°
